Home   Weather   Binningen   Past weeks

Flag for Switzerland Past Weather in Binningen, Basel-Land, Switzerland — Yesterday and Last 2 Weeks

Now
24 °F

Cold.


Feels Like: 15 °F
Forecast: 20 / 29 °F
Wind: 9 mph from North

Location: Bale-Mulhouse

Current Time: Jan 17, 2017 at 4:11:16 am

Latest Report: Jan 17, 2017 at 3:00 am


Visibility: 31 mi

Pressure: 30.38 "Hg

Humidity: 80%

Dew Point: 19 °F

Location of BinningenLocation

Past Weather in Binningen — Graph

°F

Binningen Temperature Yesterday

Maximum temperature yesterday: 31 °F (at 3:00 pm)
Minimum temperature yesterday: 23 °F (at 6:00 am)
Average temperature yesterday: 28 °F

High & Low Weather Summary for the Past Weeks

 TemperatureHumidityPressure
High50 °F (Jan 12, 11:00 pm)99% (Jan 3, 1:00 am)30.76 "Hg (Jan 3, 1:00 am)
Low8 °F (Jan 7, 3:00 am)58% (Jan 7, 3:00 pm)29.47 "Hg (Jan 12, 11:00 pm)
Average30 °F86%30.25 "Hg
* Reported Jan 2 2:00 am — Jan 17 2:00 am, Binningen, Weather by CustomWeather, © 2017

Note: Actual official high and low records may vary slightly from our data, if they occured in-between our weather recording intervals... More about our weather records

Advertising

Binningen Weather History for the Previous 24 Hours

Scroll right to see more
 ConditionsComfort  
Time TempWeatherWind HumidityBarometerVisibility
2:00 am
Tue, Jan 17
25 °FCold.9 mph78%30.37 "Hg25 mi
1:00 am26 °FOvercast.12 mph74%30.37 "Hg28 mi
12:00 am27 °FOvercast.12 mph72%30.37 "Hg12 mi
11:00 pm
Mon, Jan 16
27 °FOvercast.9 mph73%30.35 "Hg12 mi
10:00 pm27 °FOvercast.12 mph76%30.35 "Hg12 mi
9:00 pm28 °FOvercast.9 mph82%30.33 "Hg9 mi
8:00 pm28 °FPassing clouds.10 mph82%30.32 "Hg11 mi
7:00 pm29 °FLight snow. Overcast.9 mph77%30.31 "Hg16 mi
6:00 pm29 °FPassing clouds.8 mph79%30.30 "Hg19 mi
5:00 pm30 °FPartly sunny.12 mph70%30.28 "Hg28 mi
4:00 pm31 °FOvercast.9 mph72%30.27 "Hg16 mi
3:00 pm31 °FOvercast.12 mph70%30.26 "Hg31 mi
2:00 pm31 °FPartly sunny.10 mph78%30.26 "Hg16 mi
1:00 pm31 °FPartly sunny.12 mph83%30.26 "Hg12 mi
12:00 pm29 °FLow clouds.9 mph89%30.27 "Hg7 mi
11:00 am28 °FLow clouds.6 mph92%30.28 "Hg5 mi
10:00 am27 °FLow clouds.2 mph92%30.28 "Hg7 mi
9:00 am26 °FOvercast.2 mph93%30.27 "Hg7 mi
8:00 am26 °FOvercast.2 mph93%30.25 "Hg6 mi
7:00 am25 °FLight snow. Overcast.1 mph94%30.24 "Hg6 mi
6:00 am23 °FPassing clouds.No wind92%30.24 "Hg6 mi
5:00 am24 °FPassing clouds.6 mph94%30.24 "Hg5 mi
4:00 am25 °FCold.2 mph92%30.23 "Hg4 mi
Weather by CustomWeather, © 2017

See weather overviewHow to use our weather pages